22.7°F
Current conditions from King Hill
Updated every 5 minutes
 
  Saturday December 20, 2014

Station Historical Data
Daily Summary for January 14, 2011 Units:  Metric    English   Both
« Previous Day
Next Day »
Daily Weekly Monthly Yearly Custom
  High: Low: Average:
Temperature: -8.5 °C -11.7 °C -10.3 °C
Dew Point: -11.4 °C -14.3 °C -13.1 °C
Humidity: 92% 73% 81%
Wind Speed: 8km/h 0km/h 3.1km/h
Wind Gust: 12.9km/h - -
Wind- - NW
Pressure: 1026.3 hPa 1023.6 hPa -
Precipitation: 0 mm    
Historical Graphs
 
 
Tabular Data for January 14, 2011
Time Temperature Dew Point Pressure Wind Wind Speed Wind Gust Humidity Daily Rainfall
00:04 -11.7 °C -14.3 °C 1024.6 hPa Calm   1.6 km/h 81% 0 mm
00:09 -11.7 °C -14.1 °C 1024.6 hPa SW 1.6 km/h 4.8 km/h 82% 0 mm
00:14 -11.7 °C -14.1 °C 1024.6 hPa Calm   4.8 km/h 82% 0 mm
00:19 -11.6 °C -14.1 °C 1024.6 hPa Calm   4.8 km/h 82% 0 mm
00:24 -11.7 °C -14.1 °C 1024.6 hPa Calm   4.8 km/h 82% 0 mm
00:29 -11.7 °C -14.2 °C 1024.6 hPa Calm   4.8 km/h 82% 0 mm
00:34 -11.7 °C -13.9 °C 1024.6 hPa SW 1.6 km/h 4.8 km/h 83% 0 mm
00:39 -11.6 °C -13.9 °C 1024.6 hPa Calm   4.8 km/h 83% 0 mm
00:44 -11.6 °C -13.9 °C 1024.6 hPa SW 1.6 km/h 4.8 km/h 83% 0 mm
00:49 -11.6 °C -13.9 °C 1024.6 hPa Calm   4.8 km/h 83% 0 mm
00:55 -11.5 °C -13.8 °C 1024.6 hPa Calm   4.8 km/h 83% 0 mm
00:59 -11.5 °C -13.8 °C 1024.6 hPa Calm   3.2 km/h 83% 0 mm
01:04 -11.4 °C -13.8 °C 1024.6 hPa Calm   3.2 km/h 83% 0 mm
01:09 -11.4 °C -13.8 °C 1024.6 hPa Calm   1.6 km/h 83% 0 mm
01:14 -11.4 °C -13.8 °C 1024.6 hPa Calm   3.2 km/h 83% 0 mm
01:19 -11.4 °C -13.9 °C 1024.6 hPa Calm   3.2 km/h 82% 0 mm
01:24 -11.4 °C -13.7 °C 1024.6 hPa Calm   1.6 km/h 83% 0 mm
01:29 -11.3 °C -13.7 °C 1024.6 hPa Calm   1.6 km/h 83% 0 mm
01:34 -11.4 °C -13.7 °C 1024.9 hPa Calm     83% 0 mm
01:39 -11.4 °C -13.7 °C 1024.9 hPa Calm   1.6 km/h 83% 0 mm
01:44 -11.3 °C -13.7 °C 1024.9 hPa Calm   1.6 km/h 83% 0 mm
01:49 -11.4 °C -13.7 °C 1024.9 hPa Calm   1.6 km/h 83% 0 mm
01:55 -11.3 °C -13.7 °C 1024.9 hPa Calm     83% 0 mm
01:59 -11.3 °C -13.6 °C 1024.9 hPa Calm     83% 0 mm
02:04 -11.2 °C -13.6 °C 1024.9 hPa Calm   1.6 km/h 83% 0 mm
02:09 -11.2 °C -13.5 °C 1024.9 hPa Calm   3.2 km/h 83% 0 mm
02:14 -11.1 °C -13.4 °C 1024.9 hPa Calm   3.2 km/h 83% 0 mm
02:19 -11.1 °C -13.4 °C 1024.9 hPa Calm   3.2 km/h 83% 0 mm
02:24 -11.1 °C -13.6 °C 1025.3 hPa Calm   3.2 km/h 82% 0 mm
02:29 -11.1 °C -13.5 °C 1025.3 hPa Calm   3.2 km/h 82% 0 mm
02:34 -11.1 °C -13.5 °C 1025.3 hPa Calm     82% 0 mm
02:39 -11.1 °C -13.5 °C 1025.3 hPa Calm     82% 0 mm
02:44 -11.1 °C -13.5 °C 1025.3 hPa SW 1.6 km/h 3.2 km/h 82% 0 mm
02:49 -11.1 °C -13.5 °C 1025.3 hPa Calm   3.2 km/h 82% 0 mm
02:54 -11.1 °C -13.4 °C 1025.3 hPa SW 1.6 km/h 3.2 km/h 83% 0 mm
03:00 -11.1 °C -13.4 °C 1025.3 hPa SW 1.6 km/h 4.8 km/h 83% 0 mm
03:04 -11.1 °C -13.4 °C 1025.3 hPa Calm   4.8 km/h 83% 0 mm
03:09 -11.1 °C -13.4 °C 1025.3 hPa Calm   3.2 km/h 83% 0 mm
03:14 -11.1 °C -13.4 °C 1025.3 hPa Calm   1.6 km/h 83% 0 mm
03:19 -11.1 °C -13.4 °C 1025.3 hPa Calm   1.6 km/h 83% 0 mm
03:24 -11.1 °C -13.4 °C 1025.3 hPa Calm     83% 0 mm
03:29 -11.1 °C -13.4 °C 1025.3 hPa Calm     83% 0 mm
03:34 -11.2 °C -13.5 °C 1024.9 hPa Calm     83% 0 mm
03:44 -11.2 °C -13.5 °C 1025.3 hPa Calm   1.6 km/h 83% 0 mm
03:49 -11.2 °C -13.5 °C 1025.3 hPa Calm     83% 0 mm
03:55 -11.1 °C -13.4 °C 1025.3 hPa Calm     83% 0 mm
03:59 -11.1 °C -13.4 °C 1025.3 hPa Calm     83% 0 mm
04:04 -11.1 °C -13.4 °C 1025.3 hPa Calm     83% 0 mm
04:09 -11 °C -13.3 °C 1025.3 hPa Calm     83% 0 mm
04:14 -11 °C -13.3 °C 1024.9 hPa SW 1.6 km/h 3.2 km/h 83% 0 mm
04:19 -11.1 °C -13.4 °C 1024.9 hPa Calm   3.2 km/h 83% 0 mm
04:24 -11.1 °C -13.4 °C 1024.9 hPa Calm   1.6 km/h 83% 0 mm
04:29 -11.1 °C -13.4 °C 1024.9 hPa Calm     83% 0 mm
04:34 -11.2 °C -13.5 °C 1024.9 hPa Calm     83% 0 mm
04:39 -11.2 °C -13.6 °C 1024.9 hPa Calm     83% 0 mm
04:44 -11.3 °C -13.6 °C 1024.9 hPa Calm     83% 0 mm
04:49 -11.3 °C -13.7 °C 1024.9 hPa Calm     83% 0 mm
04:54 -11.3 °C -13.4 °C 1024.9 hPa Calm     84% 0 mm
04:59 -11.2 °C -13.4 °C 1024.9 hPa Calm     84% 0 mm
05:04 -11.2 °C -13.3 °C 1024.9 hPa Calm     84% 0 mm
05:09 -11.2 °C -13.3 °C 1024.9 hPa Calm     84% 0 mm
05:14 -11.2 °C -13.3 °C 1024.9 hPa Calm   1.6 km/h 84% 0 mm
05:19 -11.1 °C -13.3 °C 1024.9 hPa Calm   1.6 km/h 84% 0 mm
05:24 -11.1 °C -13.2 °C 1024.9 hPa Calm   1.6 km/h 84% 0 mm
05:29 -11 °C -13.2 °C 1024.9 hPa Calm   1.6 km/h 84% 0 mm
05:34 -11 °C -13.2 °C 1024.9 hPa Calm     84% 0 mm
05:39 -11.1 °C -13.2 °C 1024.9 hPa Calm   3.2 km/h 84% 0 mm
05:44 -11.1 °C -13.2 °C 1024.9 hPa Calm   3.2 km/h 84% 0 mm
05:49 -11.1 °C -13.2 °C 1024.9 hPa Calm   3.2 km/h 84% 0 mm
05:54 -11.1 °C -13.3 °C 1024.9 hPa Calm   3.2 km/h 84% 0 mm
05:59 -11.1 °C -13.3 °C 1024.9 hPa Calm     84% 0 mm
06:04 -11.1 °C -13.2 °C 1024.9 hPa Calm     84% 0 mm
06:09 -11.2 °C -13.3 °C 1024.9 hPa Calm     84% 0 mm
06:14 -11.2 °C -13.3 °C 1024.9 hPa Calm   1.6 km/h 84% 0 mm
06:19 -11.2 °C -13.3 °C 1024.9 hPa Calm   1.6 km/h 84% 0 mm
06:24 -11.1 °C -13.3 °C 1024.9 hPa Calm     84% 0 mm
06:29 -11.1 °C -13.1 °C 1024.9 hPa Calm     85% 0 mm
06:34 -10.9 °C -12.9 °C 1025.3 hPa Calm     85% 0 mm
06:39 -10.9 °C -12.9 °C 1025.3 hPa Calm     85% 0 mm
06:44 -10.9 °C -12.9 °C 1024.9 hPa Calm     85% 0 mm
06:49 -10.8 °C -12.8 °C 1025.3 hPa Calm     85% 0 mm
06:55 -10.8 °C -13 °C 1025.3 hPa Calm     84% 0 mm
06:59 -10.8 °C -13 °C 1025.3 hPa Calm     84% 0 mm
07:04 -10.8 °C -12.8 °C 1025.3 hPa Calm     85% 0 mm
07:09 -10.8 °C -12.8 °C 1025.3 hPa Calm     85% 0 mm
07:14 -10.7 °C -12.8 °C 1025.3 hPa Calm     85% 0 mm
07:19 -10.7 °C -12.8 °C 1025.6 hPa Calm     85% 0 mm
07:24 -10.7 °C -12.8 °C 1025.6 hPa Calm     85% 0 mm
07:29 -10.7 °C -12.8 °C 1025.6 hPa Calm     85% 0 mm
07:34 -10.8 °C -12.8 °C 1025.6 hPa Calm     85% 0 mm
07:39 -10.9 °C -13.1 °C 1025.6 hPa Calm     84% 0 mm
07:44 -10.9 °C -12.9 °C 1025.6 hPa Calm     85% 0 mm
07:49 -10.8 °C -12.8 °C 1025.6 hPa Calm     85% 0 mm
07:55 -10.8 °C -12.8 °C 1026 hPa Calm     85% 0 mm
07:59 -10.7 °C -12.8 °C 1026 hPa Calm     85% 0 mm
08:04 -10.6 °C -12.7 °C 1026 hPa Calm     85% 0 mm
08:09 -10.6 °C -12.6 °C 1026 hPa Calm   1.6 km/h 85% 0 mm
08:14 -10.4 °C -12.5 °C 1026 hPa Calm   1.6 km/h 85% 0 mm
08:19 -10.3 °C -12.4 °C 1026 hPa Calm     85% 0 mm
08:24 -10.3 °C -12.3 °C 1026 hPa Calm   4.8 km/h 85% 0 mm
08:29 -10.2 °C -12.4 °C 1026 hPa Calm   4.8 km/h 84% 0 mm
08:34 -10.2 °C -12.3 °C 1026 hPa NW 3.2 km/h 6.4 km/h 84% 0 mm
08:39 -10.1 °C -12.3 °C 1026 hPa NW 1.6 km/h 6.4 km/h 84% 0 mm
08:44 -10 °C -12.2 °C 1026 hPa NW 1.6 km/h 3.2 km/h 84% 0 mm
08:49 -10 °C -12.2 °C 1026.3 hPa NW 1.6 km/h 4.8 km/h 84% 0 mm
08:54 -9.9 °C -12.1 °C 1026.3 hPa NW 1.6 km/h 4.8 km/h 84% 0 mm
08:59 -9.9 °C -12.1 °C 1026.3 hPa Calm   4.8 km/h 84% 0 mm
09:04 -9.9 °C -12.1 °C 1026.3 hPa NW 3.2 km/h 6.4 km/h 84% 0 mm
09:09 -9.8 °C -12 °C 1026.3 hPa NW 3.2 km/h 6.4 km/h 84% 0 mm
09:14 -9.8 °C -11.9 °C 1026.3 hPa NW 4.8 km/h 8 km/h 84% 0 mm
09:19 -9.8 °C -12.2 °C 1026.3 hPa WNW 1.6 km/h 8 km/h 83% 0 mm
09:24 -9.7 °C -11.9 °C 1026.3 hPa Calm   6.4 km/h 84% 0 mm
09:29 -9.6 °C -11.9 °C 1026.3 hPa WNW 1.6 km/h 4.8 km/h 83% 0 mm
09:34 -9.4 °C -11.8 °C 1026.3 hPa Calm   4.8 km/h 83% 0 mm
09:39 -9.3 °C -11.6 °C 1026.3 hPa WNW 3.2 km/h 4.8 km/h 83% 0 mm
09:44 -9.2 °C -11.5 °C 1026.3 hPa WNW 3.2 km/h 6.4 km/h 83% 0 mm
09:49 -9.2 °C -11.6 °C 1026.3 hPa WNW 3.2 km/h 8 km/h 83% 0 mm
09:54 -9.1 °C -11.4 °C 1026.3 hPa NW 3.2 km/h 8 km/h 83% 0 mm
09:59 -9.2 °C -11.7 °C 1026.3 hPa NW 3.2 km/h 8 km/h 82% 0 mm
10:04 -9.1 °C -11.6 °C 1026.3 hPa NNW 4.8 km/h 8 km/h 82% 0 mm
10:09 -9.1 °C -11.6 °C 1026.3 hPa NNW 4.8 km/h 8 km/h 82% 0 mm
10:14 -8.9 °C -11.6 °C 1026.3 hPa NNW 3.2 km/h 12.9 km/h 81% 0 mm
10:19 -8.8 °C -11.6 °C 1026 hPa NW 4.8 km/h 12.9 km/h 80% 0 mm
10:24 -8.8 °C -11.7 °C 1026 hPa North 1.6 km/h 9.7 km/h 80% 0 mm
10:30 -8.8 °C -11.6 °C 1026 hPa NW 4.8 km/h 8 km/h 80% 0 mm
10:34 -8.8 °C -11.6 °C 1026 hPa NW 1.6 km/h 9.7 km/h 80% 0 mm
10:39 -8.6 °C -11.4 °C 1026 hPa NW 4.8 km/h 9.7 km/h 80% 0 mm
10:44 -8.5 °C -11.5 °C 1026 hPa NNW 1.6 km/h 9.7 km/h 79% 0 mm
10:49 -8.6 °C -11.8 °C 1025.6 hPa Calm   8 km/h 78% 0 mm
10:54 -8.6 °C -11.8 °C 1025.6 hPa NNW 1.6 km/h 6.4 km/h 78% 0 mm
10:59 -8.8 °C -11.9 °C 1025.6 hPa NNW 3.2 km/h 8 km/h 78% 0 mm
11:04 -8.8 °C -11.8 °C 1025.6 hPa North 4.8 km/h 8 km/h 79% 0 mm
11:09 -8.9 °C -12 °C 1025.6 hPa NNW 3.2 km/h 9.7 km/h 78% 0 mm
11:14 -9.1 °C -12.2 °C 1025.3 hPa NW 6.4 km/h 12.9 km/h 78% 0 mm
11:19 -9.2 °C -12.3 °C 1025.3 hPa NW 4.8 km/h 12.9 km/h 78% 0 mm
11:24 -9.2 °C -12.3 °C 1025.3 hPa NW 3.2 km/h 11.3 km/h 78% 0 mm
11:29 -9.2 °C -12.3 °C 1025.3 hPa NW 4.8 km/h 11.3 km/h 78% 0 mm
11:34 -9.2 °C -12.4 °C 1025.3 hPa NW 8 km/h 11.3 km/h 77% 0 mm
11:39 -9.1 °C -12.3 °C 1024.9 hPa NNW 3.2 km/h 11.3 km/h 77% 0 mm
11:44 -9 °C -12.3 °C 1024.9 hPa NNW 4.8 km/h 12.9 km/h 77% 0 mm
11:49 -9 °C -12.3 °C 1024.9 hPa Calm   12.9 km/h 77% 0 mm
11:54 -8.9 °C -12.2 °C 1024.9 hPa NNW 3.2 km/h 8 km/h 77% 0 mm
11:59 -8.8 °C -12.1 °C 1024.9 hPa NNW 4.8 km/h 11.3 km/h 77% 0 mm
12:04 -8.8 °C -12.3 °C 1024.9 hPa NNW 3.2 km/h 11.3 km/h 76% 0 mm
12:09 -8.9 °C -12.3 °C 1024.9 hPa NW 1.6 km/h 9.7 km/h 76% 0 mm
12:14 -8.9 °C -12.5 °C 1024.6 hPa NNW 4.8 km/h 9.7 km/h 75% 0 mm
12:19 -8.9 °C -12.4 °C 1024.6 hPa NW 1.6 km/h 9.7 km/h 76% 0 mm
12:24 -9 °C -12.6 °C 1024.6 hPa NNW 6.4 km/h 11.3 km/h 75% 0 mm
12:29 -8.9 °C -12.4 °C 1024.6 hPa NNW 1.6 km/h 12.9 km/h 76% 0 mm
12:34 -8.9 °C -12.5 °C 1024.6 hPa NNW 3.2 km/h 12.9 km/h 75% 0 mm
12:39 -8.8 °C -12.8 °C 1024.6 hPa NNW 3.2 km/h 9.7 km/h 73% 0 mm
12:44 -8.9 °C -12.9 °C 1024.6 hPa NNW 3.2 km/h 9.7 km/h 73% 0 mm
12:49 -9 °C -12.8 °C 1024.6 hPa NNW 1.6 km/h 8 km/h 74% 0 mm
12:54 -8.9 °C -12.7 °C 1024.6 hPa NNW 3.2 km/h 6.4 km/h 74% 0 mm
12:59 -9 °C -12.8 °C 1024.6 hPa NNW 3.2 km/h 8 km/h 74% 0 mm
13:04 -9.1 °C -12.8 °C 1024.6 hPa NNW 1.6 km/h 8 km/h 74% 0 mm
13:09 -9.1 °C -12.8 °C 1024.6 hPa NW 3.2 km/h 6.4 km/h 74% 0 mm
13:14 -9.2 °C -13 °C 1024.6 hPa Calm   8 km/h 74% 0 mm
13:19 -9.2 °C -12.9 °C 1024.6 hPa NNW 1.6 km/h 8 km/h 74% 0 mm
13:24 -9.2 °C -12.8 °C 1024.6 hPa NNW 4.8 km/h 9.7 km/h 75% 0 mm
13:30 -9.2 °C -12.8 °C 1024.6 hPa NNW 1.6 km/h 9.7 km/h 75% 0 mm
13:35 -9.2 °C -12.7 °C 1024.6 hPa Calm   6.4 km/h 76% 0 mm
13:39 -9.2 °C -12.7 °C 1024.6 hPa Calm   6.4 km/h 76% 0 mm
13:44 -9.3 °C -12.9 °C 1024.6 hPa NNW 1.6 km/h 6.4 km/h 75% 0 mm
13:49 -9.3 °C -12.9 °C 1024.6 hPa NNW 3.2 km/h 6.4 km/h 75% 0 mm
13:54 -9.4 °C -13 °C 1024.6 hPa North 1.6 km/h 11.3 km/h 75% 0 mm
13:59 -9.3 °C -12.9 °C 1024.6 hPa Calm   11.3 km/h 75% 0 mm
14:04 -9.3 °C -12.9 °C 1024.6 hPa Calm   4.8 km/h 75% 0 mm
14:09 -9.3 °C -12.9 °C 1024.6 hPa Calm   6.4 km/h 75% 0 mm
14:14 -9.3 °C -12.9 °C 1024.6 hPa NNW 4.8 km/h 9.7 km/h 75% 0 mm
14:19 -9.3 °C -12.9 °C 1024.6 hPa NW 3.2 km/h 9.7 km/h 75% 0 mm
14:24 -9.3 °C -13.1 °C 1024.9 hPa Calm   8 km/h 74% 0 mm
14:29 -9.3 °C -13.1 °C 1024.9 hPa Calm   6.4 km/h 74% 0 mm
14:34 -9.2 °C -12.9 °C 1024.9 hPa Calm   8 km/h 74% 0 mm
14:39 -9.2 °C -13.1 °C 1024.9 hPa NNW 1.6 km/h 8 km/h 73% 0 mm
14:44 -9.2 °C -13.1 °C 1024.9 hPa Calm   4.8 km/h 73% 0 mm
14:49 -9.2 °C -13.1 °C 1024.9 hPa Calm   6.4 km/h 73% 0 mm
14:55 -9.1 °C -12.9 °C 1024.9 hPa North 1.6 km/h 6.4 km/h 74% 0 mm
14:59 -9.1 °C -13.1 °C 1024.9 hPa Calm   4.8 km/h 73% 0 mm
15:04 -9.1 °C -13.1 °C 1024.9 hPa NNW 1.6 km/h 4.8 km/h 73% 0 mm
15:09 -9.1 °C -13 °C 1024.9 hPa Calm   4.8 km/h 73% 0 mm
15:14 -9.1 °C -13 °C 1025.3 hPa Calm   4.8 km/h 73% 0 mm
15:19 -9.1 °C -13.1 °C 1025.3 hPa Calm   4.8 km/h 73% 0 mm
15:24 -9.2 °C -13.1 °C 1025.3 hPa Calm   3.2 km/h 73% 0 mm
15:29 -9.2 °C -13.2 °C 1025.3 hPa Calm   3.2 km/h 73% 0 mm
15:34 -9.3 °C -13.2 °C 1025.3 hPa Calm   3.2 km/h 73% 0 mm
15:39 -9.3 °C -13.1 °C 1025.3 hPa Calm   1.6 km/h 74% 0 mm
15:44 -9.3 °C -13.1 °C 1025.3 hPa Calm   3.2 km/h 74% 0 mm
15:49 -9.3 °C -13.1 °C 1025.3 hPa Calm   3.2 km/h 74% 0 mm
15:54 -9.3 °C -13.1 °C 1025.3 hPa Calm   3.2 km/h 74% 0 mm
15:59 -9.4 °C -13.2 °C 1025.3 hPa Calm   1.6 km/h 74% 0 mm
16:04 -9.4 °C -13.2 °C 1025.3 hPa Calm   1.6 km/h 74% 0 mm
16:09 -9.5 °C -13.3 °C 1025.3 hPa Calm     74% 0 mm
16:14 -9.5 °C -13.3 °C 1024.9 hPa Calm   3.2 km/h 74% 0 mm
16:19 -9.6 °C -13.3 °C 1025.3 hPa Calm   4.8 km/h 74% 0 mm
16:24 -9.6 °C -13.4 °C 1025.3 hPa Calm   4.8 km/h 74% 0 mm
16:29 -9.7 °C -13.4 °C 1025.3 hPa Calm   3.2 km/h 74% 0 mm
16:34 -9.7 °C -13.5 °C 1025.3 hPa Calm     74% 0 mm
16:39 -9.8 °C -13.4 °C 1024.9 hPa Calm   1.6 km/h 75% 0 mm
16:44 -9.8 °C -13.3 °C 1024.9 hPa Calm   1.6 km/h 76% 0 mm
16:49 -9.8 °C -13.4 °C 1024.9 hPa Calm     75% 0 mm
16:54 -9.9 °C -13.6 °C 1025.3 hPa Calm     75% 0 mm
16:59 -10 °C -13.6 °C 1024.9 hPa Calm     75% 0 mm
17:04 -10.1 °C -13.7 °C 1024.9 hPa Calm     75% 0 mm
17:09 -10.1 °C -13.5 °C 1024.9 hPa Calm     76% 0 mm
17:14 -10.1 °C -13.5 °C 1024.9 hPa Calm     76% 0 mm
17:19 -10.1 °C -13.5 °C 1024.9 hPa Calm   3.2 km/h 76% 0 mm
17:24 -10.1 °C -13.6 °C 1025.3 hPa Calm   3.2 km/h 76% 0 mm
17:29 -10.1 °C -13.4 °C 1024.9 hPa Calm   1.6 km/h 77% 0 mm
17:35 -10.2 °C -13.3 °C 1024.9 hPa Calm     78% 0 mm
17:39 -10.2 °C -13.1 °C 1024.9 hPa Calm     79% 0 mm
17:44 -10.2 °C -13.2 °C 1024.9 hPa Calm     79% 0 mm
17:49 -10.3 °C -13.2 °C 1025.3 hPa Calm     79% 0 mm
17:54 -10.3 °C -13.3 °C 1025.3 hPa Calm     79% 0 mm
17:59 -10.3 °C -13.3 °C 1024.9 hPa Calm     79% 0 mm
18:04 -10.3 °C -13.3 °C 1024.9 hPa Calm     79% 0 mm
18:10 -10.3 °C -13.3 °C 1024.9 hPa Calm     79% 0 mm
18:14 -10.4 °C -13.2 °C 1024.9 hPa Calm     80% 0 mm
18:19 -10.4 °C -13.2 °C 1024.9 hPa Calm     80% 0 mm
18:24 -10.4 °C -13.2 °C 1024.9 hPa Calm     80% 0 mm
18:29 -10.5 °C -13.4 °C 1024.9 hPa Calm     79% 0 mm
18:34 -10.6 °C -13.5 °C 1024.9 hPa Calm     79% 0 mm
18:39 -10.6 °C -13.4 °C 1024.9 hPa Calm     80% 0 mm
18:44 -10.6 °C -13.4 °C 1024.9 hPa Calm     80% 0 mm
18:49 -10.6 °C -13.4 °C 1024.9 hPa Calm     80% 0 mm
18:55 -10.6 °C -13.3 °C 1024.9 hPa Calm     80% 0 mm
18:59 -10.6 °C -13.2 °C 1024.9 hPa Calm     81% 0 mm
19:04 -10.6 °C -13.2 °C 1024.9 hPa Calm     81% 0 mm
19:09 -10.6 °C -13.2 °C 1024.9 hPa Calm     81% 0 mm
19:14 -10.6 °C -13.2 °C 1024.9 hPa Calm     81% 0 mm
19:19 -10.6 °C -13.2 °C 1024.9 hPa Calm     81% 0 mm
19:24 -10.6 °C -13.2 °C 1024.9 hPa Calm     81% 0 mm
19:29 -10.7 °C -13.3 °C 1024.9 hPa Calm     81% 0 mm
19:34 -10.7 °C -13.3 °C 1024.9 hPa Calm     81% 0 mm
19:40 -10.7 °C -13.3 °C 1024.9 hPa Calm     81% 0 mm
19:44 -10.7 °C -13.3 °C 1024.9 hPa Calm     81% 0 mm
19:49 -10.8 °C -13.4 °C 1024.9 hPa Calm     81% 0 mm
19:55 -10.8 °C -13.4 °C 1024.9 hPa Calm     81% 0 mm
20:04 -10.7 °C -13.3 °C 1024.9 hPa Calm     81% 0 mm
20:09 -10.7 °C -13.3 °C 1024.9 hPa Calm     81% 0 mm
20:14 -10.7 °C -13.3 °C 1024.9 hPa Calm     81% 0 mm
20:19 -10.7 °C -13.3 °C 1024.9 hPa Calm     81% 0 mm
20:24 -10.7 °C -13.2 °C 1024.9 hPa Calm     82% 0 mm
20:30 -10.6 °C -13.1 °C 1024.9 hPa Calm     82% 0 mm
20:35 -10.6 °C -13.1 °C 1024.6 hPa Calm     82% 0 mm
20:39 -10.6 °C -13.1 °C 1024.6 hPa Calm     82% 0 mm
20:44 -10.7 °C -13.2 °C 1024.6 hPa Calm     82% 0 mm
20:49 -10.7 °C -13.2 °C 1024.6 hPa Calm     82% 0 mm
20:55 -10.7 °C -13.3 °C 1024.6 hPa Calm     81% 0 mm
20:59 -10.8 °C -13.4 °C 1024.9 hPa Calm     81% 0 mm
21:04 -10.8 °C -13.3 °C 1024.6 hPa Calm     82% 0 mm
21:09 -10.8 °C -13.3 °C 1024.6 hPa Calm     82% 0 mm
21:14 -10.8 °C -13.3 °C 1024.6 hPa Calm     82% 0 mm
21:19 -10.9 °C -13.3 °C 1024.6 hPa Calm     82% 0 mm
21:24 -10.9 °C -13.3 °C 1024.6 hPa Calm     82% 0 mm
21:30 -10.9 °C -13.3 °C 1024.6 hPa Calm     82% 0 mm
21:35 -11 °C -13.4 °C 1024.6 hPa Calm     82% 0 mm
21:39 -11.1 °C -13.5 °C 1024.3 hPa Calm     82% 0 mm
21:44 -11.1 °C -13.5 °C 1024.3 hPa Calm     82% 0 mm
21:49 -11.1 °C -13.5 °C 1024.3 hPa Calm     82% 0 mm
21:55 -11.1 °C -13.5 °C 1024.3 hPa Calm     82% 0 mm
21:59 -10.9 °C -13.3 °C 1024.3 hPa Calm     83% 0 mm
22:04 -10.9 °C -13.2 °C 1024.3 hPa Calm     83% 0 mm
22:09 -10.8 °C -13.1 °C 1024.3 hPa Calm     83% 0 mm
22:15 -10.7 °C -13.2 °C 1024.3 hPa Calm     82% 0 mm
22:19 -10.8 °C -13.3 °C 1024.3 hPa Calm     82% 0 mm
22:25 -10.9 °C -13.3 °C 1024.3 hPa Calm     82% 0 mm
22:30 -11 °C -13.4 °C 1024.3 hPa Calm     82% 0 mm
22:39 -11.1 °C -13.6 °C 1023.9 hPa Calm     82% 0 mm
22:44 -11.3 °C -13.7 °C 1023.9 hPa Calm     82% 0 mm
22:49 -11.3 °C -13.7 °C 1023.9 hPa Calm     83% 0 mm
22:55 -11.4 °C -13.8 °C 1023.9 hPa Calm     82% 0 mm
22:59 -11.4 °C -13.8 °C 1023.9 hPa Calm     83% 0 mm
23:04 -11.4 °C -12.4 °C 1023.9 hPa Calm     92% 0 mm
23:09 -11.3 °C -13.7 °C 1023.9 hPa Calm     83% 0 mm
23:15 -11.4 °C -13.7 °C 1023.9 hPa Calm     83% 0 mm
23:19 -11.4 °C -13.7 °C 1023.9 hPa Calm     83% 0 mm
23:24 -11.4 °C -13.7 °C 1023.9 hPa Calm     83% 0 mm
23:29 -11.3 °C -13.6 °C 1023.9 hPa Calm     83% 0 mm
23:35 -11.3 °C -13.6 °C 1023.9 hPa Calm     83% 0 mm
23:39 -11.2 °C -13.6 °C 1023.6 hPa Calm   1.6 km/h 83% 0 mm
23:44 -11.2 °C -13.3 °C 1023.6 hPa Calm   1.6 km/h 84% 0 mm
23:49 -11.2 °C -13.3 °C 1023.6 hPa Calm   1.6 km/h 84% 0 mm
23:55 -11.2 °C -13.3 °C 1023.6 hPa Calm   1.6 km/h 84% 0 mm
23:59 -11.2 °C -13.3 °C 1023.6 hPa Calm     84% 0 mm
Westford Weather
Compliments of Weather Underground

 
 
Current Radar Loop:

Copyright © WestfordWeather.net 2007-2014. All rights reserved.